Weather History for KDXX - September, 2013

Change the Weather History Date:

Wednesday, September 11, 2013

  Actual Average (KAQP) Record (KAQP)
Temperature  
Mean Temperature 74 °F -  
Max Temperature 89 °F 73 °F 89 °F (2005)
Min Temperature 57 °F 50 °F 41 °F (1999)
Cooling Degree Days 9    
Growing Degree Days 24 (Base 50)    
Moisture  
Dew Point 53 °F    
Average Humidity 55    
Maximum Humidity 88    
Minimum Humidity 21    
Precipitation  
Precipitation 0.00 in - - ()
Sea Level Pressure  
Sea Level Pressure 30.07 in    
Wind  
Wind Speed 7 mph (WNW)    
Max Wind Speed 16 mph    
Max Gust Speed 25 mph    
Visibility 10 miles    
Events      
Averages and records for this station are not official NWS values.
T = Trace of Precipitation, MM = Missing Value Source: NWS Daily Summary

Daily Weather History Graph

Daily Weather History Graph

Search for Another Location

Airport or City:

Trip Planner

Search our weather history database for the weather conditions in past years. The results will help you decide how hot, cold, wet, or windy it might be!

Date:

Astronomy

Sep. 11, 2013 Rise Set
Actual Time 6:58 AM CDT 7:42 PM CDT
Civil Twilight 6:29 AM CDT 8:12 PM CDT
Nautical Twilight 5:54 AM CDT 8:47 PM CDT
Astronomical Twilight 5:17 AM CDT 9:23 PM CDT
Moon 1:45 PM CDT (9/11) 11:22 PM CDT (9/11)
Length of Visible Light 13h 42m
Length of Day
12h 43m
Waxing Crescent, 39% of the Moon is Illuminated
Sep 11
Waxing Crescent
Sep 12
First Quarter
Sep 19
Full
Sep 26
Last Quarter
Oct 4
New

Hourly Weather History & Observations

Time (CDT) Temp. Heat Index Dew Point Humidity Pressure Visibility Wind Dir Wind Speed Gust Speed Precip Events Conditions
12:14 AM 64.4 °F - 59.0 °F 83% 30.01 in 10.0 mi SSW 3.5 mph - N/A   Clear
12:34 AM 64.4 °F - 59.0 °F 83% 30.02 in 10.0 mi SW 5.8 mph - N/A   Clear
12:53 AM 64.4 °F - 59.0 °F 83% 30.02 in 10.0 mi SSW 3.5 mph - N/A   Clear
1:14 AM 64.4 °F - 59.0 °F 83% 30.01 in 10.0 mi South 4.6 mph - N/A   Clear
1:34 AM 64.4 °F - 59.0 °F 83% 30.01 in 10.0 mi SSW 4.6 mph - N/A   Clear
1:53 AM 66.2 °F - 59.0 °F 78% 30.01 in 10.0 mi SSW 5.8 mph - N/A   Clear
2:14 AM 64.4 °F - 59.0 °F 83% 30.01 in 10.0 mi SSW 5.8 mph - N/A   Clear
2:34 AM 64.4 °F - 59.0 °F 83% 30.01 in 10.0 mi SSW 6.9 mph - N/A   Clear
2:53 AM 66.2 °F - 59.0 °F 78% 30.02 in 10.0 mi SW 6.9 mph - N/A   Clear
3:14 AM 64.4 °F - 59.0 °F 83% 30.02 in 10.0 mi SW 4.6 mph - N/A   Clear
3:34 AM 64.4 °F - 57.2 °F 77% 30.02 in 10.0 mi SW 6.9 mph - N/A   Clear
3:53 AM 64.4 °F - 57.2 °F 77% 30.02 in 10.0 mi SW 5.8 mph - N/A   Clear
4:14 AM 62.6 °F - 57.2 °F 82% 30.02 in 10.0 mi WSW 5.8 mph - N/A   Clear
4:34 AM 62.6 °F - 57.2 °F 82% 30.02 in 10.0 mi SW 6.9 mph - N/A   Scattered Clouds
4:53 AM 62.6 °F - 57.2 °F 82% 30.02 in 10.0 mi SW 5.8 mph - N/A   Mostly Cloudy
5:14 AM 62.6 °F - 57.2 °F 82% 30.03 in 10.0 mi Calm Calm - N/A   Scattered Clouds
5:34 AM 62.6 °F - 57.2 °F 82% 30.03 in 10.0 mi West 4.6 mph - N/A   Clear
5:53 AM 62.6 °F - 57.2 °F 82% 30.03 in 10.0 mi West 5.8 mph - N/A   Clear
6:14 AM 60.8 °F - 55.4 °F 82% 30.04 in 10.0 mi West 4.6 mph - N/A   Clear
6:34 AM 60.8 °F - 55.4 °F 82% 30.05 in 10.0 mi West 4.6 mph - N/A   Clear
6:53 AM 60.8 °F - 55.4 °F 82% 30.05 in 10.0 mi West 4.6 mph - N/A   Clear
7:13 AM 60.8 °F - 57.2 °F 88% 30.06 in 10.0 mi West 5.8 mph - N/A   Clear
7:34 AM 62.6 °F - 57.2 °F 82% 30.06 in 10.0 mi West 5.8 mph - N/A   Clear
7:53 AM 62.6 °F - 57.2 °F 82% 30.07 in 3.0 mi West 6.9 mph - N/A   Clear
8:13 AM 64.4 °F - 59.0 °F 83% 30.07 in 10.0 mi West 5.8 mph - N/A   Clear
8:34 AM 66.2 °F - 60.8 °F 83% 30.07 in 10.0 mi West 5.8 mph - N/A   Clear
8:53 AM 69.8 °F - 60.8 °F 73% 30.07 in 10.0 mi West 5.8 mph - N/A   Clear
9:13 AM 71.6 °F - 60.8 °F 69% 30.07 in 10.0 mi West 6.9 mph - N/A   Clear
9:33 AM 73.4 °F - 60.8 °F 65% 30.08 in 10.0 mi WNW 5.8 mph - N/A   Clear
9:53 AM 73.4 °F - 60.8 °F 65% 30.08 in 10.0 mi WNW 10.4 mph - N/A   Clear
10:14 AM 75.2 °F - 60.8 °F 61% 30.08 in 10.0 mi WNW 8.1 mph - N/A   Clear
10:33 AM 77.0 °F - 60.8 °F 57% 30.08 in 10.0 mi NW 6.9 mph - N/A   Clear
10:53 AM 78.8 °F - 59.0 °F 51% 30.08 in 10.0 mi NNW 8.1 mph - N/A   Clear
11:14 AM 80.6 °F 80.8 °F 57.2 °F 45% 30.08 in 10.0 mi WNW 6.9 mph - N/A   Clear
11:33 AM 80.6 °F 80.8 °F 57.2 °F 45% 30.08 in 10.0 mi NNW 4.6 mph - N/A   Clear
11:53 AM 82.4 °F 81.7 °F 55.4 °F 39% 30.08 in 10.0 mi NNW 5.8 mph - N/A   Clear
12:14 PM 82.4 °F 81.4 °F 53.6 °F 37% 30.09 in 10.0 mi NW 11.5 mph - N/A   Clear
12:33 PM 84.2 °F - 51.8 °F 33% 30.08 in 10.0 mi NW 5.8 mph - N/A   Clear
12:53 PM 84.2 °F - 48.2 °F 29% 30.08 in 10.0 mi NW 5.8 mph - N/A   Clear
1:14 PM 84.2 °F - 48.2 °F 29% 30.08 in 10.0 mi NNW 8.1 mph - N/A   Clear
1:33 PM 84.2 °F - 48.2 °F 29% 30.08 in 10.0 mi NW 6.9 mph - N/A   Clear
1:53 PM 86.0 °F - 50.0 °F 29% 30.07 in 10.0 mi NW 10.4 mph - N/A   Clear
2:14 PM 87.8 °F - 50.0 °F 27% 30.06 in 10.0 mi WNW 10.4 mph - N/A   Clear
2:33 PM 87.8 °F - 50.0 °F 27% 30.06 in 10.0 mi NW 10.4 mph 16.1 mph N/A   Clear
2:54 PM 89.6 °F - 44.6 °F 21% 30.06 in 10.0 mi WNW 13.8 mph 21.9 mph N/A   Clear
3:13 PM 89.6 °F - 44.6 °F 21% 30.06 in 10.0 mi WNW 16.1 mph 24.2 mph N/A   Clear
3:34 PM 87.8 °F - 44.6 °F 22% 30.06 in 10.0 mi NW 13.8 mph 25.3 mph N/A   Clear
3:54 PM 87.8 °F - 44.6 °F 22% 30.05 in 10.0 mi NW 13.8 mph 23.0 mph N/A   Clear
4:13 PM 87.8 °F - 42.8 °F 21% 30.05 in 10.0 mi NNW 16.1 mph 20.7 mph N/A   Clear
4:34 PM 87.8 °F - 44.6 °F 22% 30.05 in 10.0 mi NW 16.1 mph 19.6 mph N/A   Clear
4:53 PM 87.8 °F - 44.6 °F 22% 30.05 in 10.0 mi WNW 13.8 mph 20.7 mph N/A   Clear
5:13 PM 87.8 °F - 46.4 °F 24% 30.05 in 10.0 mi NNW 13.8 mph 25.3 mph N/A   Clear
5:34 PM 86.0 °F - 48.2 °F 27% 30.05 in 10.0 mi NW 13.8 mph 21.9 mph N/A   Clear
5:53 PM 86.0 °F - 50.0 °F 29% 30.06 in 10.0 mi NW 11.5 mph 16.1 mph N/A   Clear
6:13 PM 84.2 °F - 48.2 °F 29% 30.06 in 10.0 mi NNW 16.1 mph 19.6 mph N/A   Clear
6:34 PM 82.4 °F - 46.4 °F 28% 30.06 in 10.0 mi NNW 11.5 mph 21.9 mph N/A   Clear
6:53 PM 80.6 °F - 48.2 °F 32% 30.06 in 10.0 mi North 9.2 mph - N/A   Clear
7:14 PM 78.8 °F - 48.2 °F 34% 30.07 in 10.0 mi North 11.5 mph - N/A   Clear
7:34 PM 77.0 °F - 46.4 °F 34% 30.07 in 10.0 mi North 9.2 mph - N/A   Clear
7:53 PM 75.2 °F - 46.4 °F 36% 30.08 in 10.0 mi North 12.7 mph - N/A   Clear
8:14 PM 75.2 °F - 44.6 °F 34% 30.10 in 10.0 mi North 11.5 mph 18.4 mph N/A   Clear
8:34 PM 73.4 °F - 46.4 °F 38% 30.11 in 10.0 mi NNW 10.4 mph - N/A   Clear
8:53 PM 73.4 °F - 48.2 °F 41% 30.12 in 10.0 mi North 11.5 mph - N/A   Clear
9:14 PM 71.6 °F - 46.4 °F 41% 30.13 in 10.0 mi North 11.5 mph - N/A   Clear
9:33 PM 71.6 °F - 46.4 °F 41% 30.14 in 10.0 mi North 9.2 mph - N/A   Clear
9:54 PM 69.8 °F - 48.2 °F 46% 30.14 in 10.0 mi North 9.2 mph - N/A   Clear
10:14 PM 66.2 °F - 48.2 °F 52% 30.15 in 10.0 mi NNW 6.9 mph - N/A   Clear
10:33 PM 64.4 °F - 48.2 °F 56% 30.15 in 10.0 mi NNW 6.9 mph - N/A   Clear
10:54 PM 62.6 °F - 50.0 °F 63% 30.16 in 10.0 mi West 4.6 mph - N/A   Clear
11:14 PM 60.8 °F - 50.0 °F 68% 30.16 in 10.0 mi WNW 4.6 mph - N/A   Clear
11:33 PM 59.0 °F - 50.0 °F 72% 30.16 in 10.0 mi WNW 5.8 mph - N/A   Clear
11:54 PM 57.2 °F - 50.0 °F 77% 30.16 in 10.0 mi WNW 5.8 mph - N/A   Clear